Wind_Speed
31 29 27 27 27 27 27 27 26 25 24 23 22 21 20 19 19 19 18 17 17 16 15 14 13 12 10 8 6 5 4 4 6 8 10 10 11 10 10 9 8 7 6 5 4 3 3 2 2 2 2 2 2 2 2 2 2 2 2 2 2 2 2 1 1 2 2 2 1
32 30 28 28 28 28 28 27 27 26 24 23 22 21 20 20 20 19 19 18 17 17 16 15 14 13 12 10 9 8 7 6 7 8 10 10 11 10 10 9 8 7 6 5 5 4 4 3 3 3 2 2 1 1 1 2 2 2 1 1 1 1 1 1 1 2 2 1 1
33 32 30 29 29 29 29 28 27 26 25 24 23 21 21 21 20 20 19 18 18 17 16 15 15 14 13 12 11 10 9 8 9 10 11 11 11 10 10 10 9 8 7 6 5 5 5 4 4 4 3 2 1 1 1 2 1 1 1 1 1 1 1 1 1 2 2 1 2
34 33 31 30 30 30 29 28 27 26 26 25 24 23 22 22 21 20 19 19 18 18 17 16 16 15 15 14 13 12 11 10 10 11 12 12 11 11 11 10 9 8 8 7 6 6 6 5 5 4 4 2 2 1 1 1 1 0 1 1 1 1 1 1 1 2 2 2 2
35 34 32 31 30 30 30 29 28 27 27 26 25 24 24 23 23 22 20 20 19 19 18 17 17 17 16 16 15 13 12 11 12 12 13 12 12 11 11 10 10 9 8 8 7 7 7 6 6 5 4 3 2 2 1 1 1 1 1 1 1 1 1 1 2 2 3 3 3
36 35 33 32 31 30 31 30 29 28 28 28 27 26 25 25 24 23 21 20 20 19 19 19 19 18 18 17 16 14 13 13 13 13 14 13 13 12 11 11 10 9 9 8 8 8 8 7 7 6 5 4 3 3 2 1 0 1 1 2 1 1 1 1 2 3 3 4 4
37 36 35 33 32 32 32 31 31 30 30 29 28 27 27 26 24 23 21 20 20 20 20 20 20 20 20 19 18 16 15 14 14 14 14 14 13 13 12 11 11 10 10 9 9 9 9 8 7 6 5 5 4 4 2 1 1 1 2 2 2 2 2 2 3 3 3 4 5
38 37 36 35 34 33 33 32 32 32 31 31 29 28 27 26 24 23 22 21 22 22 22 21 21 21 21 21 19 17 16 15 15 15 15 15 14 13 12 12 11 11 10 10 10 10 9 9 8 7 6 5 5 4 3 2 2 2 3 3 3 3 3 4 4 4 4 5 6
40 39 37 36 35 34 34 33 33 33 32 32 30 29 27 26 24 23 23 23 24 23 23 22 22 22 22 22 20 19 17 16 16 16 16 16 15 14 13 13 12 12 11 11 11 11 10 9 9 8 7 6 4 3 3 3 3 3 3 4 4 4 4 5 5 6 6 6 7
41 40 39 38 36 35 35 34 34 34 33 32 31 29 28 26 25 25 25 25 25 24 23 23 23 24 24 23 22 20 19 18 17 17 17 17 16 15 14 14 13 13 12 12 12 12 11 10 10 9 7 6 4 4 4 5 5 5 5 5 5 6 6 6 7 7 8 8 9
42 42 41 39 38 36 35 35 35 35 34 33 31 30 29 28 27 26 26 27 26 25 24 24 25 25 25 25 24 22 21 19 19 18 18 18 17 16 15 14 14 13 13 13 13 13 12 11 10 9 7 6 5 5 6 6 7 7 7 7 7 7 8 8 8 9 10 10 11
42 43 42 40 39 37 37 36 36 36 35 34 33 31 30 29 29 28 28 28 27 26 26 26 27 26 26 26 25 24 23 21 20 19 19 18 18 17 16 15 14 14 14 13 13 13 13 12 11 9 7 6 5 5 6 7 8 9 9 9 9 9 10 10 10 10 11 12 12
42 43 43 41 40 38 38 37 37 37 36 35 34 33 32 31 31 30 30 29 28 28 28 28 28 27 27 27 27 26 25 23 21 20 20 19 18 17 16 16 16 15 14 14 14 14 14 13 11 8 6 5 5 5 6 8 9 10 10 11 11 11 12 12 12 12 13 13 14
42 43 43 42 41 40 39 38 38 38 37 36 35 35 34 33 33 32 31 30 30 30 30 30 29 29 29 29 29 28 27 25 23 22 21 20 19 18 17 17 16 16 15 16 16 16 15 13 11 8 5 5 5 6 7 8 9 11 12 12 13 13 14 14 14 14 15 15 16
41 42 43 43 42 41 40 39 39 38 38 37 37 36 36 35 35 34 33 32 32 32 32 31 31 31 31 30 30 29 28 26 24 23 22 21 19 18 18 17 17 16 17 17 17 17 16 14 11 8 6 5 6 8 9 9 10 11 12 14 15 15 15 16 16 17 17 17 17
39 41 42 43 43 42 40 39 39 39 39 38 38 38 38 37 37 36 34 34 33 33 33 33 33 33 32 32 32 31 29 28 26 24 22 21 20 19 18 18 17 17 17 18 18 18 17 15 12 9 7 7 8 9 10 10 10 11 13 15 16 17 17 18 18 19 19 19 19
38 40 42 43 43 42 41 39 39 39 39 39 39 40 40 39 38 37 36 35 34 34 34 34 34 34 34 34 33 32 31 29 27 25 23 22 21 19 18 18 17 17 18 19 19 18 17 16 13 10 9 10 11 11 10 10 10 11 14 16 17 18 19 20 20 21 22 22 21
38 39 41 42 43 42 41 40 39 39 40 40 41 41 41 41 40 39 37 36 35 35 35 35 36 36 35 35 34 33 32 30 28 26 24 22 21 19 18 17 17 18 19 20 20 19 18 17 14 12 11 12 13 12 10 9 11 13 16 18 19 20 21 21 22 23 24 24 24
37 39 40 42 42 42 41 40 39 39 40 41 42 42 42 42 41 40 39 37 36 36 36 36 36 36 36 35 34 34 32 31 29 26 24 22 20 18 16 16 17 19 20 21 20 20 19 18 15 14 13 14 15 13 10 10 12 15 19 21 22 23 23 24 24 25 26 26 26
37 38 40 41 41 41 41 40 40 41 41 42 43 43 43 43 42 41 40 39 38 37 36 36 36 36 35 35 34 34 32 31 28 26 24 22 19 17 16 17 19 21 22 22 21 20 20 19 17 16 15 16 16 13 10 10 13 17 20 22 24 25 26 26 27 27 28 28 28
37 38 39 40 41 41 41 41 41 41 42 43 43 44 43 43 42 41 40 39 38 37 36 35 35 35 35 34 34 34 33 31 28 26 24 21 19 18 18 18 20 22 23 22 22 21 21 21 20 17 16 17 16 13 11 11 13 17 20 23 25 26 27 28 29 29 30 30 30
36 37 38 39 39 40 40 40 40 41 41 42 42 42 42 41 41 40 38 37 36 36 36 35 35 34 34 34 34 33 32 30 27 25 23 21 20 19 19 19 21 23 24 23 23 23 24 24 21 18 17 17 15 13 11 12 14 17 20 22 24 26 27 28 29 30 31 31 31
34 34 34 35 36 36 37 37 38 38 38 39 39 39 38 37 36 36 35 35 35 35 35 35 34 33 33 33 33 32 31 29 26 24 22 21 21 20 20 21 23 25 25 24 25 26 27 26 22 18 17 17 15 13 12 13 15 17 20 22 23 25 26 26 27 28 29 29 29
31 30 29 29 31 32 32 33 33 34 34 33 33 33 32 31 31 31 32 33 35 35 34 34 33 33 32 32 32 31 29 27 25 24 23 23 22 21 20 23 25 26 26 26 28 29 30 27 22 18 17 17 15 14 14 14 16 18 20 22 24 24 25 25 25 26 26 26 27
28 27 27 26 27 27 28 28 29 29 29 28 27 26 26 26 27 28 30 32 33 33 33 32 32 32 33 32 31 29 27 26 25 25 25 25 23 22 22 24 26 27 28 30 31 32 30 27 22 18 18 17 16 15 15 16 17 19 21 23 24 25 25 25 24 24 24 25 25
26 26 26 25 25 25 25 26 26 26 25 23 22 22 23 25 27 29 31 32 32 32 32 31 32 32 32 32 31 29 27 27 27 27 27 26 24 23 23 26 28 30 31 32 33 32 31 27 23 20 19 18 17 17 17 18 19 20 22 24 25 25 25 25 25 25 25 25 26
24 24 25 25 24 24 24 24 24 23 23 23 24 25 28 31 33 34 34 34 33 32 32 32 32 31 31 31 30 29 29 29 30 29 28 28 25 24 25 27 30 33 34 34 33 32 31 28 24 22 20 20 19 18 18 19 20 21 23 25 25 26 26 26 26 26 26 26 27
23 23 23 23 23 23 23 23 24 25 27 29 31 33 35 37 38 38 38 36 34 33 33 33 32 31 30 30 30 31 32 32 31 31 30 29 26 25 27 30 33 35 35 33 32 32 31 28 25 23 22 21 21 20 20 20 21 22 24 25 26 27 27 27 26 26 26 27 27
24 23 23 23 24 24 25 26 29 31 34 36 37 38 39 40 40 40 38 36 34 34 34 35 34 32 30 30 32 34 34 34 33 32 31 30 27 27 29 33 37 37 35 33 32 32 31 28 26 24 23 22 21 21 21 21 22 23 24 26 27 27 27 27 27 27 27 27 27
24 24 25 25 27 28 30 32 34 35 36 37 37 38 39 40 40 39 37 34 33 34 35 36 35 34 33 33 35 36 36 36 35 34 32 30 28 29 33 37 38 37 35 33 33 32 31 29 27 25 24 23 22 22 22 22 23 24 25 27 28 28 28 27 27 27 27 27 28
27 28 29 30 30 32 33 34 35 36 36 36 37 38 38 38 38 37 35 33 33 33 34 35 34 34 34 36 37 38 37 36 35 34 32 30 29 32 36 38 38 37 35 34 33 32 31 29 27 26 25 24 23 23 23 23 24 25 27 28 28 28 28 27 27 27 28 28 29
30 32 32 33 33 33 34 34 35 35 35 36 37 37 37 37 36 35 34 33 33 33 33 33 33 34 35 36 38 38 37 36 35 34 32 30 31 34 37 38 38 37 35 34 33 32 30 29 28 27 26 25 24 24 24 25 26 27 29 29 29 29 28 27 27 28 28 29 30
32 33 33 33 33 34 34 34 34 35 35 35 36 36 36 35 35 34 34 33 32 32 31 32 32 33 35 36 37 37 36 35 35 33 32 31 32 34 37 38 38 37 36 35 34 32 30 29 28 27 27 26 26 26 26 27 29 30 31 31 31 29 28 27 27 28 28 29 31
31 32 32 32 33 33 34 34 34 34 34 34 35 35 34 34 33 33 32 32 31 30 30 31 32 34 35 36 36 36 35 35 34 33 31 31 32 35 37 38 38 37 36 35 33 32 30 29 28 28 28 28 28 29 30 31 32 33 33 33 31 30 28 27 27 27 29 31 32
30 30 30 30 31 32 32 33 33 33 33 33 33 33 33 32 31 31 30 30 29 29 30 31 32 34 35 35 35 35 35 34 33 31 30 31 33 36 38 38 38 37 37 35 33 31 30 29 29 29 29 30 31 32 33 33 34 34 34 33 31 29 28 27 27 28 30 32 33
29 28 28 28 29 30 30 31 31 31 32 32 32 32 31 30 29 29 28 28 28 28 29 31 32 33 34 35 35 35 35 33 32 30 31 32 34 36 37 37 37 37 36 34 32 30 30 30 29 30 31 32 33 33 34 34 34 34 33 31 30 28 26 26 28 30 32 33 34
27 27 26 26 27 28 28 29 29 29 30 30 30 29 28 28 27 27 27 27 27 28 29 30 32 33 34 35 35 35 34 32 30 30 32 34 35 36 36 36 36 36 34 32 31 30 30 30 30 31 32 33 34 34 34 34 33 32 30 29 27 27 27 28 29 31 33 34 34
25 25 25 25 25 26 26 27 27 27 27 27 27 26 25 25 25 25 26 27 27 27 28 29 31 33 34 35 35 34 33 31 31 31 32 34 35 35 35 35 35 34 32 31 30 30 30 30 31 32 32 33 33 33 32 31 29 28 27 27 27 27 28 29 31 32 33 33 32
24 23 23 23 23 24 25 25 25 25 25 24 24 23 23 23 23 24 26 26 26 26 28 30 31 33 34 34 34 33 32 31 31 31 32 33 33 34 34 34 33 31 30 29 30 30 30 30 31 32 33 33 33 32 30 27 26 26 26 26 27 29 30 30 31 33 33 32 31
23 22 22 21 21 22 23 23 23 23 22 21 21 21 21 22 23 25 26 25 25 26 28 30 31 32 33 33 32 31 30 30 30 30 31 31 32 32 32 31 29 28 28 29 30 30 29 30 31 32 33 33 32 30 27 25 25 25 26 27 28 30 31 31 31 32 32 31 30
22 21 20 20 20 21 21 21 21 20 20 19 19 20 20 21 23 24 25 25 26 28 29 30 30 30 30 30 29 29 29 29 29 29 29 29 30 31 30 28 26 27 28 30 29 29 29 30 31 32 33 32 30 27 24 24 25 26 28 28 29 29 30 30 29 30 31 31 31
Wind_Direction
222 223 224 223 220 218 217 216 216 217 217 215 217 216 215 214 213 212 209 205 202 200 197 196 194 192 191 191 199 214 242 272 280 275 270 267 267 268 269 268 267 264 262 259 254 249 242 237 236 241 249 263 283 297 312 327 337 340 338 334 325 323 319 316 309 319 334 357 9
223 223 224 223 221 219 218 217 217 218 218 217 217 217 215 215 214 212 209 205 202 200 198 197 196 197 200 203 210 219 229 241 249 253 254 256 259 263 265 263 261 258 254 249 243 234 224 216 214 215 219 232 254 277 298 319 330 329 323 309 311 315 311 296 300 317 329 341 342
223 223 224 224 222 221 220 219 218 218 218 218 218 217 216 215 215 213 210 206 203 201 201 201 202 203 206 211 215 220 225 230 235 239 243 248 253 257 259 258 255 251 246 240 232 223 211 203 201 201 204 209 224 254 281 303 319 314 266 264 285 301 292 271 289 308 317 316 315
224 223 223 223 223 223 222 221 219 219 218 219 218 217 216 216 216 214 211 208 206 205 205 206 207 209 212 215 219 223 226 228 231 235 239 244 249 253 255 253 249 244 238 231 221 211 202 195 192 192 191 191 202 231 262 285 296 265 205 222 248 263 264 265 284 296 300 295 295
224 224 224 224 224 224 224 223 221 219 219 219 219 218 217 216 216 215 213 211 210 209 209 211 213 215 217 220 223 226 229 231 231 233 237 241 244 248 249 247 242 237 231 224 213 204 196 190 187 185 183 182 191 206 232 265 271 224 200 207 210 227 246 261 276 286 290 290 290
224 225 225 226 226 225 224 223 222 220 220 220 220 219 218 218 218 217 216 215 214 214 214 215 217 219 221 223 225 229 233 234 234 234 235 238 240 241 240 238 235 230 225 217 209 200 194 188 186 184 182 180 184 191 199 216 224 212 207 208 214 226 244 249 269 281 287 288 288
224 225 226 227 226 225 225 224 222 221 221 221 221 221 220 220 220 220 219 219 219 219 218 219 220 221 223 224 227 230 234 236 236 235 234 234 234 234 233 230 228 225 219 213 206 199 193 188 187 186 185 182 183 187 192 203 215 214 211 216 229 240 243 242 259 273 279 282 282
225 226 227 228 227 226 225 224 223 222 222 222 222 222 222 222 222 222 222 222 223 223 223 223 223 224 225 227 229 232 235 236 237 235 234 232 230 229 227 225 223 220 216 211 205 199 194 190 188 189 188 186 186 192 206 231 236 226 219 222 236 246 249 248 256 262 266 270 273
225 226 227 228 228 227 226 225 224 223 223 223 223 223 223 223 223 224 224 225 226 227 227 227 227 228 228 229 231 233 236 237 236 235 234 232 229 227 225 224 221 218 215 210 204 200 196 193 191 191 191 192 196 209 232 249 246 237 229 231 241 249 254 255 257 258 259 262 266
226 227 227 228 228 228 226 225 225 224 224 224 224 224 223 224 224 225 226 227 229 230 230 230 230 230 230 230 231 233 236 237 237 236 235 233 230 227 226 225 222 219 215 211 205 201 198 197 194 194 196 202 215 234 248 252 251 245 242 243 248 254 257 259 260 260 260 262 266
227 228 229 229 229 228 227 225 225 225 225 225 224 224 224 224 224 225 227 229 231 232 232 233 233 232 231 231 232 233 235 236 237 236 235 233 231 228 227 226 225 222 218 213 207 203 201 199 197 200 208 222 239 250 251 251 252 252 253 254 257 260 263 264 265 265 266 268 271
228 229 229 230 230 229 227 226 226 225 225 225 225 225 225 224 224 225 227 229 231 233 234 234 234 234 234 233 233 233 234 235 236 236 235 233 231 229 227 226 225 223 219 216 211 207 204 201 202 210 225 245 256 255 251 249 252 257 261 263 264 266 269 270 271 270 271 272 275
230 229 230 230 230 229 228 227 226 226 226 225 225 225 226 225 225 226 227 229 231 233 234 235 235 236 235 235 234 234 234 234 235 235 234 233 231 230 228 226 224 221 221 222 217 211 206 205 209 221 242 259 259 251 245 246 253 260 266 269 270 271 273 275 275 275 274 275 277
231 230 230 230 231 230 230 228 228 227 227 226 226 227 227 227 227 227 227 229 231 232 233 234 235 236 236 235 235 234 234 234 234 234 234 233 231 230 228 226 223 222 224 227 223 215 209 209 215 229 250 258 248 236 234 239 249 260 267 271 274 276 277 278 278 277 277 277 278
231 231 231 231 231 232 231 230 229 229 228 228 228 228 229 229 228 228 228 228 230 231 233 234 235 235 235 235 234 233 233 233 233 233 232 232 232 231 229 227 225 226 229 231 226 218 212 213 220 234 250 250 240 232 229 232 243 255 265 271 274 277 279 279 279 279 279 280 280
231 231 231 231 232 232 233 232 232 231 230 230 230 230 230 230 230 230 229 228 229 230 232 234 235 234 234 233 233 232 232 231 231 231 231 231 231 231 230 228 228 231 234 233 228 221 215 216 224 237 251 252 247 240 234 232 239 253 263 269 273 277 278 279 279 279 280 281 282
232 232 232 232 233 234 235 235 234 233 233 233 232 232 232 232 232 231 230 229 229 230 231 233 234 234 233 231 231 230 229 229 229 229 230 231 232 232 230 229 232 236 238 235 229 223 219 219 226 238 252 259 258 252 244 237 243 255 264 269 273 276 278 279 279 279 279 281 282
232 233 233 233 234 236 237 237 237 236 236 235 234 234 234 235 234 234 233 231 230 230 231 232 233 232 231 230 230 229 228 228 228 228 229 231 233 231 230 231 236 241 241 237 231 225 221 222 228 240 255 265 268 264 254 244 250 259 266 270 273 276 278 279 279 278 278 279 281
233 234 235 235 237 238 239 239 239 239 237 236 236 236 236 236 236 236 235 234 232 231 231 231 231 231 231 230 230 230 229 228 228 228 229 231 230 229 230 235 242 244 242 237 232 227 223 224 230 242 257 270 275 273 261 250 253 260 266 270 273 276 278 279 279 279 278 279 281
234 235 237 238 239 240 241 241 241 240 239 237 237 237 237 238 238 237 237 236 234 232 230 229 230 231 230 230 230 230 230 229 228 228 228 228 226 227 233 242 245 244 241 237 233 228 224 225 230 243 260 274 279 276 266 257 258 262 266 270 273 276 278 279 280 279 279 279 280
235 237 238 240 240 241 242 242 241 240 239 238 237 237 237 238 238 238 238 237 236 233 230 229 229 230 230 230 230 230 230 229 228 227 226 224 225 233 243 248 245 241 239 238 234 228 224 224 231 244 263 276 280 276 268 263 266 269 271 272 274 277 279 280 280 280 279 278 279
236 237 238 238 239 240 240 241 240 239 238 238 238 237 237 238 238 238 238 237 236 234 232 230 229 230 230 230 230 230 230 229 228 225 222 222 230 242 250 247 241 238 239 239 235 229 224 224 231 247 266 277 279 275 269 268 272 276 278 278 279 281 282 283 282 281 279 278 278
234 234 234 235 236 238 238 239 239 238 238 238 238 237 237 237 237 237 236 236 236 235 234 232 230 229 229 229 230 230 230 229 226 221 220 227 240 249 250 242 238 238 240 240 235 228 224 224 232 250 268 277 277 273 269 269 274 278 282 285 286 286 285 284 283 281 280 279 279
231 229 229 230 233 235 236 236 236 236 236 235 235 235 235 235 234 234 234 235 236 236 236 234 231 228 228 229 230 232 231 228 222 219 224 237 248 251 246 238 238 240 242 240 235 228 225 226 235 253 269 275 275 272 269 269 273 277 282 287 289 290 288 285 282 281 281 281 281
229 227 227 227 229 231 232 232 232 232 231 229 229 230 231 230 229 230 232 234 236 237 237 235 232 229 229 230 232 233 230 223 219 222 233 245 253 251 243 238 239 242 242 239 235 230 227 228 238 255 268 272 272 270 268 269 272 277 281 284 287 288 288 286 283 282 283 284 284
227 226 226 226 227 228 229 229 228 227 225 221 218 219 221 222 224 227 231 234 237 239 240 239 237 235 234 235 235 232 226 220 222 229 241 252 255 249 241 238 240 242 242 240 236 232 230 232 242 256 266 269 269 267 267 269 272 276 280 282 284 284 284 283 282 283 283 284 285
227 226 225 225 225 225 226 226 225 222 218 214 212 215 219 224 229 232 235 239 243 246 248 247 245 244 243 240 236 229 223 222 227 236 247 255 255 247 239 238 240 242 243 242 238 234 233 237 246 256 264 267 269 268 267 268 271 275 279 281 282 281 281 281 281 281 282 283 284
226 225 225 224 224 223 223 223 222 221 219 219 220 223 227 233 237 241 244 248 252 255 256 255 254 252 248 242 235 228 225 227 233 242 251 257 254 245 238 237 239 242 244 243 240 237 236 241 249 257 262 267 269 270 269 269 271 274 277 279 280 280 280 280 280 281 282 283 284
227 226 225 223 223 222 222 223 225 228 230 232 233 234 237 242 246 249 252 255 257 259 259 258 255 251 246 239 231 227 227 232 239 248 254 256 251 242 236 235 238 241 244 243 240 238 239 245 252 257 261 266 270 271 271 271 272 274 276 278 280 280 280 280 281 281 282 283 284
228 226 225 224 224 225 226 228 233 237 240 242 244 244 246 248 251 253 255 257 258 258 257 255 251 246 240 234 229 228 231 237 244 250 254 253 246 239 234 235 238 242 243 242 240 239 242 248 254 257 261 266 270 272 272 272 273 274 276 278 278 279 280 280 280 281 282 283 284
227 227 227 228 229 230 232 235 239 243 247 250 251 251 252 253 254 255 257 258 258 258 256 252 246 241 236 232 229 230 234 240 246 251 252 249 242 236 234 236 239 241 242 241 240 242 246 252 256 258 261 265 269 272 272 272 273 273 274 274 275 276 277 278 279 280 281 282 284
230 231 232 233 234 236 239 241 244 247 250 253 254 255 256 257 257 258 259 259 259 257 254 249 243 238 233 230 230 232 237 243 247 250 249 245 240 236 236 238 240 241 241 241 242 245 251 257 259 259 261 265 269 271 272 272 271 271 271 271 271 272 273 275 277 278 280 281 283
235 237 238 239 240 242 244 246 248 250 252 254 256 257 259 259 260 259 259 259 258 256 252 247 241 236 231 229 230 234 239 245 248 249 247 243 239 237 238 239 240 240 240 241 244 250 256 260 261 260 261 265 268 271 272 271 271 271 270 270 270 271 272 273 275 276 278 280 282
241 242 243 244 245 246 248 249 251 253 254 256 258 259 260 260 260 259 258 258 258 257 253 248 242 237 233 232 234 237 242 246 248 248 245 241 239 238 239 239 239 240 241 243 248 254 260 263 262 261 261 265 268 271 272 273 273 273 273 273 273 273 273 273 274 275 278 280 282
247 247 246 246 247 249 251 252 254 255 256 257 259 260 261 261 261 260 260 260 259 256 253 248 243 238 235 235 237 240 244 247 248 247 244 241 239 239 239 239 239 240 242 246 252 259 265 266 263 261 262 265 269 272 275 276 277 277 276 276 275 274 274 273 274 277 279 281 282
251 250 249 248 249 251 253 255 256 257 258 259 260 261 261 261 261 261 261 259 257 254 250 246 241 237 234 235 238 241 245 247 247 245 243 241 240 240 239 238 239 241 244 249 257 265 269 267 264 262 263 266 270 275 279 281 281 280 279 277 275 274 274 275 277 279 281 282 283
254 253 252 250 250 252 255 257 258 259 260 261 261 261 261 261 261 260 258 256 253 251 248 244 239 236 234 236 239 242 246 247 246 244 242 241 241 240 240 239 240 243 248 255 263 270 271 268 264 263 264 268 273 278 282 283 282 280 277 275 273 274 276 278 280 281 282 283 284
257 256 255 253 252 253 256 259 260 261 261 262 262 262 262 260 258 255 253 253 251 248 244 240 237 235 236 238 241 244 247 247 245 243 241 241 241 241 241 241 243 247 253 261 270 274 273 268 264 264 267 271 277 282 284 283 280 276 273 272 273 276 279 281 282 282 283 284 284
258 258 258 256 254 254 256 259 261 262 262 262 262 261 259 256 252 250 251 252 249 243 238 236 234 235 236 239 241 244 245 244 243 241 241 241 241 242 243 244 247 252 260 269 276 276 273 268 266 267 270 275 280 283 282 279 275 272 271 272 275 279 281 282 282 283 284 284 283
258 258 258 256 255 255 256 259 261 262 262 260 258 256 253 250 248 250 251 250 243 236 233 232 233 234 236 238 240 240 240 241 240 240 240 241 242 243 244 247 252 260 269 277 279 277 272 269 268 270 275 279 282 281 279 274 271 271 273 276 279 281 283 283 283 284 284 284 283
256 256 256 256 255 255 255 257 259 260 260 257 254 251 250 249 250 251 249 244 236 230 228 230 232 234 235 236 237 237 238 239 240 240 240 240 242 244 246 251 260 270 277 281 280 276 272 270 272 275 279 281 281 279 274 271 271 273 276 279 281 282 283 283 282 283 283 284 284
Height
1537 1537 1538 1539 1540 1540 1541 1542 1543 1543 1544 1545 1546 1546 1547 1548 1549 1549 1550 1551 1552 1552 1553 1554 1554 1554 1554 1554 1554 1554 1554 1554 1554 1555 1555 1556 1556 1556 1556 1556 1557 1557 1557 1557 1557 1557 1557 1557 1557 1557 1558 1558 1558 1558 1558 1558 1558 1558 1558 1559 1559 1559 1559 1559 1559 1559 1558 1558 1558
1535 1535 1536 1537 1538 1539 1539 1540 1541 1542 1543 1544 1544 1545 1546 1547 1547 1548 1549 1549 1550 1551 1552 1552 1553 1553 1553 1553 1553 1552 1552 1552 1553 1553 1554 1554 1554 1554 1555 1555 1555 1555 1555 1556 1556 1556 1556 1556 1556 1556 1556 1556 1557 1557 1557 1557 1557 1557 1557 1557 1558 1558 1558 1558 1558 1558 1558 1558 1557
1533 1534 1534 1535 1536 1537 1537 1538 1539 1540 1541 1542 1543 1544 1544 1545 1546 1547 1547 1548 1549 1549 1550 1551 1551 1551 1551 1551 1551 1551 1551 1551 1551 1552 1552 1552 1553 1553 1553 1554 1554 1554 1554 1554 1554 1555 1555 1555 1555 1555 1555 1555 1555 1556 1556 1556 1556 1556 1556 1557 1557 1557 1557 1557 1557 1557 1557 1557 1557
1531 1532 1532 1533 1534 1535 1536 1537 1538 1539 1540 1540 1541 1542 1543 1544 1544 1545 1546 1547 1547 1548 1549 1549 1549 1550 1549 1549 1549 1550 1550 1550 1550 1550 1551 1551 1551 1551 1552 1552 1552 1553 1553 1553 1554 1554 1554 1554 1554 1554 1554 1554 1554 1555 1555 1555 1555 1555 1556 1556 1556 1556 1556 1556 1556 1556 1556 1556 1556
1529 1529 1530 1531 1532 1533 1534 1535 1536 1537 1538 1539 1539 1540 1541 1542 1543 1544 1544 1545 1545 1546 1547 1548 1548 1548 1548 1548 1548 1549 1549 1549 1549 1549 1549 1549 1550 1550 1550 1550 1551 1551 1551 1552 1552 1553 1553 1553 1553 1554 1554 1554 1554 1554 1554 1554 1554 1554 1555 1555 1555 1555 1555 1555 1555 1555 1555 1555 1555
1527 1528 1529 1529 1531 1532 1533 1534 1534 1535 1536 1537 1537 1538 1539 1540 1541 1542 1542 1543 1544 1545 1545 1546 1546 1546 1546 1547 1547 1547 1548 1548 1548 1548 1548 1548 1549 1549 1549 1549 1549 1550 1550 1551 1551 1551 1552 1552 1553 1553 1553 1553 1553 1553 1553 1553 1554 1554 1554 1554 1554 1554 1554 1554 1554 1554 1554 1554 1554
1525 1526 1527 1528 1529 1530 1531 1532 1533 1534 1534 1535 1535 1536 1537 1538 1539 1540 1541 1542 1543 1543 1544 1544 1544 1544 1545 1545 1545 1546 1546 1546 1547 1547 1547 1547 1548 1548 1548 1548 1549 1549 1549 1550 1550 1550 1551 1551 1552 1552 1552 1552 1552 1552 1552 1553 1553 1553 1553 1553 1553 1553 1553 1554 1554 1554 1554 1553 1553
1523 1524 1525 1526 1527 1528 1529 1530 1531 1532 1532 1533 1534 1534 1535 1537 1538 1539 1540 1540 1541 1541 1541 1542 1542 1543 1543 1544 1544 1544 1545 1545 1545 1546 1546 1546 1546 1547 1547 1547 1548 1548 1548 1549 1549 1549 1550 1550 1551 1551 1551 1551 1551 1551 1552 1552 1552 1553 1553 1553 1553 1552 1552 1552 1552 1552 1552 1552 1552
1521 1522 1523 1524 1525 1526 1527 1528 1529 1529 1530 1531 1532 1533 1534 1535 1536 1537 1538 1538 1538 1539 1539 1540 1540 1541 1541 1542 1543 1543 1544 1544 1544 1544 1544 1545 1545 1546 1546 1546 1547 1547 1547 1548 1548 1549 1549 1550 1550 1550 1551 1551 1551 1551 1551 1552 1552 1552 1552 1552 1552 1551 1551 1551 1551 1551 1551 1551 1550
1519 1520 1521 1522 1523 1524 1525 1526 1527 1528 1529 1530 1531 1532 1533 1534 1534 1535 1536 1536 1536 1537 1537 1538 1539 1539 1539 1540 1541 1541 1542 1542 1543 1543 1543 1544 1544 1544 1545 1545 1546 1546 1546 1547 1547 1548 1548 1549 1549 1549 1550 1550 1550 1550 1551 1551 1552 1551 1551 1551 1551 1550 1550 1550 1550 1550 1549 1549 1549
1517 1518 1519 1520 1521 1522 1524 1525 1526 1526 1527 1528 1529 1530 1531 1532 1533 1533 1534 1534 1534 1534 1535 1536 1537 1537 1538 1539 1539 1539 1540 1541 1541 1542 1542 1542 1543 1544 1544 1544 1545 1545 1546 1546 1546 1547 1547 1548 1548 1549 1549 1549 1549 1550 1550 1551 1551 1551 1551 1550 1550 1550 1549 1549 1549 1549 1548 1548 1548
1515 1516 1517 1518 1519 1520 1522 1523 1524 1524 1525 1526 1528 1528 1529 1529 1530 1531 1531 1532 1532 1533 1534 1534 1534 1535 1536 1537 1537 1538 1538 1539 1539 1540 1541 1541 1542 1543 1543 1544 1544 1544 1545 1545 1545 1546 1546 1547 1547 1548 1548 1548 1549 1549 1550 1550 1551 1550 1550 1550 1549 1549 1548 1548 1548 1548 1547 1547 1546
1514 1514 1515 1516 1518 1519 1519 1521 1521 1522 1523 1524 1525 1526 1527 1528 1528 1529 1529 1529 1530 1531 1532 1532 1533 1534 1534 1535 1535 1536 1536 1537 1538 1539 1539 1540 1541 1541 1542 1543 1543 1544 1544 1544 1544 1545 1545 1546 1546 1547 1547 1547 1548 1548 1549 1549 1549 1549 1549 1549 1548 1548 1547 1547 1547 1546 1546 1546 1545
1512 1513 1514 1514 1515 1517 1518 1519 1520 1520 1521 1522 1523 1524 1525 1525 1526 1526 1527 1527 1528 1529 1529 1530 1531 1531 1532 1533 1533 1534 1534 1535 1536 1537 1538 1539 1539 1540 1541 1542 1542 1543 1543 1543 1544 1544 1544 1545 1545 1546 1546 1546 1546 1547 1547 1547 1548 1548 1548 1548 1547 1547 1546 1546 1545 1545 1544 1544 1544
1510 1511 1512 1513 1514 1514 1516 1517 1518 1519 1519 1520 1521 1522 1522 1523 1523 1524 1524 1525 1526 1527 1527 1528 1529 1529 1530 1530 1531 1532 1533 1534 1534 1535 1536 1537 1538 1539 1540 1540 1541 1541 1542 1542 1543 1543 1544 1544 1544 1544 1544 1545 1545 1545 1545 1545 1545 1546 1546 1546 1545 1545 1545 1544 1544 1544 1543 1543 1542
1508 1509 1510 1511 1511 1512 1514 1515 1516 1517 1517 1518 1519 1519 1520 1520 1521 1522 1522 1523 1524 1524 1525 1525 1526 1527 1528 1528 1529 1530 1531 1532 1533 1534 1535 1536 1536 1538 1539 1539 1540 1540 1541 1542 1542 1542 1543 1543 1543 1543 1543 1544 1544 1544 1543 1543 1543 1544 1544 1544 1544 1544 1543 1543 1543 1542 1542 1541 1541
1506 1507 1508 1509 1509 1510 1511 1513 1514 1514 1515 1516 1517 1517 1517 1518 1519 1519 1520 1521 1522 1522 1523 1523 1524 1524 1525 1526 1527 1528 1529 1530 1531 1532 1533 1534 1535 1536 1537 1538 1539 1539 1540 1540 1541 1541 1542 1542 1542 1542 1542 1542 1542 1542 1541 1541 1541 1542 1542 1542 1542 1542 1542 1542 1541 1541 1540 1539 1539
1504 1505 1506 1506 1507 1508 1509 1510 1511 1512 1513 1514 1514 1514 1515 1516 1516 1517 1518 1519 1519 1520 1521 1521 1522 1522 1523 1524 1525 1526 1527 1528 1529 1530 1531 1533 1534 1535 1536 1537 1538 1539 1539 1539 1539 1540 1540 1541 1541 1541 1541 1541 1540 1540 1539 1539 1540 1540 1540 1540 1540 1540 1540 1540 1540 1539 1539 1538 1538
1502 1503 1504 1504 1505 1506 1507 1508 1509 1510 1511 1512 1512 1513 1513 1514 1514 1515 1516 1517 1518 1519 1519 1519 1520 1520 1521 1522 1523 1524 1525 1526 1528 1529 1530 1531 1532 1534 1535 1536 1536 1537 1537 1538 1538 1539 1539 1539 1539 1539 1539 1539 1539 1538 1538 1538 1538 1539 1539 1539 1539 1539 1538 1538 1538 1538 1537 1536 1536
1500 1501 1501 1502 1503 1504 1505 1506 1507 1508 1509 1509 1510 1510 1511 1512 1513 1514 1514 1515 1516 1517 1518 1518 1519 1519 1520 1521 1522 1523 1524 1525 1526 1528 1529 1530 1531 1532 1533 1534 1534 1535 1536 1536 1537 1537 1538 1538 1538 1537 1537 1537 1537 1536 1536 1537 1537 1537 1537 1537 1537 1537 1536 1536 1536 1536 1535 1535 1534
1498 1499 1499 1500 1501 1502 1504 1504 1505 1506 1507 1508 1508 1509 1509 1510 1511 1512 1513 1514 1515 1516 1517 1517 1517 1518 1519 1520 1520 1521 1523 1524 1525 1527 1528 1529 1529 1530 1531 1531 1533 1534 1534 1534 1535 1536 1536 1536 1535 1535 1535 1535 1535 1535 1535 1535 1535 1535 1535 1535 1535 1535 1534 1534 1534 1534 1533 1533 1532
1496 1497 1498 1499 1500 1501 1502 1503 1504 1504 1505 1506 1507 1507 1508 1509 1510 1511 1512 1513 1513 1514 1515 1516 1516 1517 1518 1519 1519 1520 1521 1523 1524 1526 1527 1527 1528 1528 1529 1530 1531 1532 1532 1533 1533 1534 1533 1533 1533 1534 1534 1534 1534 1534 1534 1534 1534 1534 1534 1534 1533 1533 1533 1532 1532 1531 1531 1530 1530
1495 1497 1498 1499 1500 1500 1501 1502 1503 1503 1504 1504 1505 1506 1507 1508 1509 1510 1510 1511 1512 1513 1514 1515 1516 1516 1517 1517 1518 1519 1520 1522 1524 1525 1525 1526 1526 1526 1527 1529 1529 1530 1530 1530 1531 1530 1530 1530 1531 1532 1533 1532 1532 1532 1532 1532 1532 1532 1532 1531 1531 1531 1531 1530 1529 1529 1529 1528 1528
1495 1497 1498 1499 1499 1499 1500 1501 1501 1502 1503 1504 1504 1505 1506 1507 1508 1509 1509 1509 1510 1511 1513 1514 1515 1516 1516 1516 1517 1518 1520 1521 1523 1523 1524 1523 1524 1524 1525 1527 1528 1528 1528 1528 1528 1527 1526 1527 1529 1530 1531 1531 1531 1531 1531 1530 1530 1530 1530 1529 1529 1529 1528 1528 1527 1527 1526 1526 1525
1494 1496 1497 1498 1498 1498 1499 1499 1500 1500 1501 1502 1504 1504 1505 1506 1507 1507 1507 1508 1509 1510 1512 1513 1514 1515 1515 1516 1517 1518 1519 1520 1521 1521 1521 1521 1522 1523 1524 1525 1526 1526 1525 1525 1524 1524 1524 1525 1527 1529 1529 1529 1529 1529 1529 1529 1528 1528 1528 1527 1527 1526 1526 1525 1525 1524 1524 1524 1523
1493 1494 1495 1496 1496 1497 1497 1498 1498 1499 1500 1501 1503 1503 1504 1504 1504 1504 1504 1506 1507 1509 1511 1512 1513 1514 1514 1515 1516 1517 1517 1518 1518 1518 1519 1520 1520 1521 1522 1523 1523 1523 1522 1521 1521 1521 1522 1524 1526 1527 1527 1527 1527 1527 1527 1526 1526 1526 1525 1525 1524 1524 1524 1523 1523 1522 1522 1522 1521
1491 1492 1493 1494 1495 1495 1495 1496 1496 1497 1499 1500 1500 1500 1500 1499 1500 1500 1502 1504 1505 1507 1509 1510 1511 1512 1513 1514 1515 1515 1515 1515 1515 1516 1517 1518 1519 1519 1520 1520 1520 1519 1519 1518 1519 1520 1521 1522 1524 1525 1525 1525 1525 1525 1524 1524 1524 1524 1523 1523 1522 1522 1521 1521 1521 1520 1520 1519 1519
1489 1490 1491 1492 1493 1494 1494 1494 1494 1495 1495 1496 1496 1496 1496 1496 1497 1498 1499 1501 1503 1505 1507 1508 1509 1510 1511 1512 1512 1512 1512 1512 1513 1514 1516 1516 1516 1517 1518 1518 1517 1516 1516 1517 1518 1518 1519 1521 1522 1523 1523 1524 1523 1523 1522 1522 1522 1521 1521 1520 1520 1519 1519 1519 1519 1518 1518 1517 1517
1487 1488 1489 1490 1490 1491 1491 1491 1491 1491 1491 1492 1492 1493 1493 1494 1494 1495 1496 1498 1500 1501 1503 1504 1505 1507 1508 1509 1509 1509 1510 1510 1512 1513 1514 1514 1514 1514 1515 1515 1514 1513 1514 1515 1516 1516 1517 1519 1520 1521 1521 1522 1521 1521 1520 1520 1519 1519 1518 1518 1517 1517 1517 1516 1516 1516 1515 1515 1515
1486 1486 1487 1487 1488 1488 1488 1488 1488 1488 1489 1489 1491 1491 1492 1492 1492 1493 1494 1495 1497 1498 1499 1500 1501 1502 1503 1504 1505 1506 1507 1508 1509 1510 1511 1511 1511 1512 1512 1512 1511 1511 1513 1514 1514 1514 1515 1517 1518 1519 1519 1520 1519 1519 1518 1517 1517 1516 1516 1515 1515 1514 1514 1514 1514 1514 1513 1513 1512
1483 1483 1484 1484 1485 1485 1485 1485 1486 1487 1488 1489 1489 1490 1490 1490 1491 1492 1493 1494 1494 1495 1496 1496 1497 1498 1499 1500 1502 1503 1504 1506 1507 1508 1508 1508 1509 1509 1509 1508 1509 1510 1511 1511 1511 1512 1514 1515 1516 1517 1518 1518 1518 1517 1516 1515 1514 1514 1513 1513 1512 1512 1512 1512 1512 1511 1511 1510 1510
1480 1480 1481 1482 1482 1483 1484 1484 1485 1486 1486 1487 1488 1488 1489 1489 1490 1491 1492 1492 1493 1494 1494 1494 1495 1496 1497 1498 1499 1501 1502 1504 1504 1505 1505 1505 1506 1506 1506 1506 1507 1508 1509 1509 1509 1511 1512 1514 1514 1515 1516 1516 1515 1514 1514 1513 1512 1511 1510 1510 1510 1509 1510 1509 1509 1509 1509 1508 1508
1478 1479 1479 1480 1481 1482 1482 1483 1484 1484 1485 1485 1486 1486 1487 1488 1489 1489 1490 1491 1492 1492 1493 1493 1494 1494 1495 1496 1498 1499 1500 1502 1502 1502 1502 1503 1504 1504 1504 1505 1506 1506 1506 1506 1508 1509 1511 1512 1513 1513 1514 1514 1513 1512 1511 1510 1509 1509 1508 1507 1507 1507 1507 1507 1507 1506 1506 1506 1505
1476 1477 1478 1479 1480 1480 1481 1482 1482 1483 1484 1484 1484 1485 1486 1486 1487 1488 1489 1489 1490 1491 1491 1492 1492 1493 1494 1495 1497 1498 1499 1499 1499 1500 1500 1501 1502 1502 1503 1504 1504 1504 1504 1505 1507 1509 1510 1510 1511 1511 1512 1511 1511 1509 1509 1508 1507 1506 1505 1505 1505 1505 1505 1504 1504 1504 1504 1503 1503
1475 1476 1477 1478 1478 1479 1479 1480 1481 1481 1482 1482 1483 1484 1484 1485 1485 1486 1487 1488 1489 1489 1490 1490 1491 1492 1493 1494 1495 1496 1496 1497 1497 1497 1498 1499 1499 1500 1501 1502 1502 1502 1502 1504 1506 1508 1509 1509 1509 1509 1509 1509 1508 1507 1506 1505 1505 1504 1503 1503 1503 1502 1502 1502 1502 1501 1501 1500 1500
1474 1474 1475 1476 1477 1477 1478 1478 1479 1479 1480 1481 1481 1482 1483 1484 1484 1485 1486 1487 1487 1488 1488 1489 1489 1490 1492 1493 1493 1494 1494 1494 1495 1495 1496 1497 1498 1499 1499 1500 1500 1500 1501 1503 1505 1506 1507 1507 1507 1507 1507 1506 1505 1505 1504 1503 1503 1502 1501 1501 1500 1500 1500 1499 1499 1499 1498 1497 1497
1472 1473 1474 1475 1476 1476 1476 1477 1477 1478 1479 1479 1480 1481 1482 1483 1484 1484 1485 1485 1485 1486 1487 1487 1488 1489 1490 1490 1491 1491 1492 1493 1493 1494 1494 1495 1496 1497 1498 1498 1498 1498 1500 1502 1504 1505 1505 1505 1505 1505 1504 1504 1503 1503 1502 1501 1500 1499 1499 1499 1498 1498 1498 1497 1497 1496 1495 1494 1494
1471 1472 1473 1474 1474 1475 1475 1475 1476 1477 1477 1478 1479 1480 1481 1482 1482 1483 1483 1483 1484 1484 1485 1486 1487 1488 1488 1489 1489 1490 1490 1491 1492 1492 1493 1494 1495 1496 1496 1496 1496 1498 1499 1502 1503 1503 1503 1503 1503 1503 1502 1502 1501 1500 1500 1499 1498 1497 1497 1496 1496 1495 1495 1495 1494 1493 1492 1491 1490
1470 1471 1471 1472 1473 1474 1474 1474 1475 1475 1476 1477 1478 1479 1480 1481 1481 1481 1482 1482 1483 1484 1485 1485 1485 1486 1487 1487 1488 1489 1489 1489 1490 1491 1492 1493 1494 1494 1494 1494 1495 1497 1499 1501 1501 1501 1500 1500 1500 1500 1500 1499 1499 1499 1498 1497 1496 1495 1494 1494 1494 1493 1493 1492 1491 1490 1489 1488 1488
1469 1470 1470 1471 1472 1473 1473 1474 1474 1475 1476 1477 1478 1478 1479 1479 1480 1480 1480 1481 1483 1484 1484 1484 1484 1485 1486 1486 1487 1487 1488 1488 1489 1490 1491 1492 1492 1493 1493 1494 1495 1497 1499 1499 1499 1498 1498 1498 1498 1498 1498 1497 1497 1496 1495 1494 1494 1493 1492 1492 1492 1491 1490 1489 1489 1488 1486 1485 1485
1468 1469 1469 1470 1471 1472 1472 1473 1474 1474 1475 1476 1477 1478 1478 1478 1479 1479 1479 1481 1482 1483 1483 1483 1484 1484 1485 1485 1486 1486 1487 1488 1489 1489 1490 1491 1491 1491 1492 1493 1495 1496 1497 1497 1496 1496 1496 1496 1496 1496 1495 1495 1494 1494 1493 1492 1492 1491 1490 1490 1489 1489 1488 1487 1486 1485 1484 1483 1482